Location: Ch?enovice
(49.7164°N, 15.2160°E)
Time: 21:02:44
(UTC+00:00)

Meteor 1-24 Rocket - Pass Details

Date: 23 May 2024
Orbit: 788 x 927 km, 81.3° (Epoch: 21 June)

Event Time Altitude Azimuth Distance (km) Brightness Sun altitude
Exits shadow 02:02:47 - 200° (SSW) 2,846 5.9 -8.4°
Reaches altitude 10° 02:03:23 10° 201° (SSW) 2,624 5.7 -8.3°
Maximum altitude 02:09:23 69° 284° (WNW) 992 4.0 -7.6°
Drops below altitude 10° 02:15:22 10° 8° (N) 2,616 7.1 -6.9°
Sets 02:17:52 0° 11° (N) 3,548 7.9 -6.7°
